Tracking 35280 objects as of 7-Sep-2026
HD Live streaming from Space Station
objects crossing your sky now

STARLINK-32666

Track STARLINK-32666 now!
10-day predictions
STARLINK-32666 is classified as:


NORAD ID: 62214
Int'l Code: 2024-229Y
Launch date: December 4, 2024
Source: United States (US)
Launch site: AIR FORCE EASTERN TEST RANGE (AFETR)
Your satellite tracking list
Your tracking list is empty




NASA's NSSDC Master Catalog

Two Line Element Set (TLE):
1 62214U 24229Y   26249.52711611  .00009333  00000-0  34813-3 0  9991
2 62214  42.9998 329.8167 0001975 284.3178  75.7454 15.27590761 98214
Source of the keplerian elements: AFSPC